Regional Weather Roundup
Issued by NWS

Home | Current Version | Previous Version | Text Only | Print | Product List | Glossary On
Versions: 1 2 3 4 5 6 7 8 9 10 11 12 13 14 15 16 17 18 19 20 21 22 23 24 25 26 27 28 29 30 31 32 33 34 35 36 37 38 39 40 41 42 43 44 45 46 47 48 49
000
ASCA42 TJSJ 230510
RWRPR
PUERTO RICO/U.S. VIRGIN ISLANDS HOURLY WEATHER ROUNDUP
NATIONAL WEATHER SERVICE SAN JUAN PR
100 AM AST SUN APR 23 2017

PRZ001>002-007>008-010-230600-
PUERTO RICO

CITY           SKY/WX    TMP DP  RH WIND       PRES   REMARKS
SAN JUAN LMM   CLEAR     79  70  73 SE5       29.99F
PONCE          CLEAR     72  66  83 NE7       30.02F
AGUADILLA      MOCLDY    73  66  78 E9        29.97F
CEIBA          PTCLDY   N/A N/A N/A E7        30.01F
$$

VIZ001>002-230600-
U.S. VIRGIN ISLANDS

CITY           SKY/WX    TMP DP  RH WIND       PRES   REMARKS
CHARLOTTE AMA  CLEAR     75  66  73 E5        29.98F
CHRISTIANSTED  PTCLDY    75  70  83 E8        29.98F
$$

HOURLY WEATHER ROUNDUP FOR THE NEWS MEDIA

CITY           SKY/WX    TMP DP  RH WIND       PRES   REMARKS
ORLANDO        CLOUDY    74  66  76 S8        29.92S
NEW YORK       MOCLDY    52  39  61 N15       30.03R
NEWARK         MOCLDY    50  37  61 N12       30.03R
CHICAGO        CLEAR     45  23  42 CALM      30.15F
HARTFORD       CLOUDY    43  41  93 VRB5      29.98R
BOSTON         CLOUDY    44  41  89 CALM      30.00R
DALLAS         CLEAR     54  44  69 NW7       30.16S
PHILADELPHIA   MOCLDY    48  39  71 N7        30.04S
LOS ANGELES    PTCLDY    65  52  62 S8        29.84S
WASHINGTON DC  CLOUDY    48  46  93 N6        30.05S


USA.gov is the U.S. government's official web portal to all federal, state and local government web resources and services.